Wetterdaten: Sonntag, 08.07.2012
Datum Zeit Temperatur Luftfeuchte Regen Wind Richtung Richtung Taupunkt Windchill Windben
08.07.2012 00:00 12,4 C 85 % 0,0 l/m 0,2 km/h (0 Bft) S 180 9,9 C 12,4 C 0,0 km/h (0 Bft)
08.07.2012 00:05 12,4 C 85 % 0,0 l/m 0,2 km/h (0 Bft) S 180 10,0 C 12,3 C 0,0 km/h (0 Bft)
08.07.2012 00:10 12,4 C 85 % 0,0 l/m 0,2 km/h (0 Bft) NO 45 9,9 C 12,3 C 0,0 km/h (0 Bft)
08.07.2012 00:15 12,4 C 85 % 0,0 l/m 0,3 km/h (0 Bft) N-NO 22 10,0 C 12,3 C 0,0 km/h (0 Bft)
08.07.2012 00:20 12,3 C 85 % 0,0 l/m 0,2 km/h (0 Bft) S-SO 157 9,9 C 12,3 C 0,0 km/h (0 Bft)
08.07.2012 00:25 12,3 C 85 % 0,0 l/m 0,0 km/h (0 Bft) S-SW 202 9,9 C 12,2 C 0,0 km/h (0 Bft)
08.07.2012 00:30 12,3 C 85 % 0,0 l/m 0,3 km/h (0 Bft) W-SW 247 10,0 C 12,3 C 3,1 km/h (1 Bft)
08.07.2012 00:35 12,3 C 85 % 0,0 l/m 0,6 km/h (0 Bft) W 270 9,9 C 12,5 C 0,0 km/h (0 Bft)
08.07.2012 00:40 12,3 C 85 % 0,0 l/m 0,6 km/h (0 Bft) S 180 9,9 C 12,6 C 3,7 km/h (1 Bft)
08.07.2012 00:45 12,3 C 85 % 0,0 l/m 0,6 km/h (0 Bft) O-SO 112 9,9 C 12,7 C 0,0 km/h (0 Bft)
08.07.2012 00:50 12,3 C 85 % 0,0 l/m 0,5 km/h (0 Bft) O 90 10,1 C 12,6 C 1,9 km/h (1 Bft)
08.07.2012 00:55 12,3 C 85 % 0,0 l/m 0,3 km/h (0 Bft) W 270 10,1 C 12,5 C 0,0 km/h (0 Bft)
08.07.2012 01:00 12,3 C 84 % 0,0 l/m 0,3 km/h (0 Bft) S-SW 202 9,8 C 12,5 C 0,0 km/h (0 Bft)
08.07.2012 01:05 12,3 C 84 % 0,0 l/m 0,2 km/h (0 Bft) S-SO 157 9,7 C 12,4 C 0,0 km/h (0 Bft)
08.07.2012 01:10 12,2 C 84 % 0,0 l/m 0,0 km/h (0 Bft) NW 315 9,6 C 12,2 C 0,0 km/h (0 Bft)
08.07.2012 01:15 12,2 C 84 % 0,0 l/m 0,2 km/h (0 Bft) S-SO 157 9,6 C 12,2 C 0,0 km/h (0 Bft)
08.07.2012 01:20 12,2 C 85 % 0,0 l/m 0,3 km/h (0 Bft) N 360 9,8 C 12,3 C 0,0 km/h (0 Bft)
08.07.2012 01:25 12,2 C 85 % 0,0 l/m 0,3 km/h (0 Bft) S 180 9,9 C 12,3 C 0,0 km/h (0 Bft)
08.07.2012 01:30 12,2 C 85 % 0,0 l/m 0,3 km/h (0 Bft) S-SO 157 9,9 C 12,4 C 0,0 km/h (0 Bft)
08.07.2012 01:35 12,2 C 85 % 0,0 l/m 0,3 km/h (0 Bft) NO 45 9,8 C 12,5 C 0,0 km/h (0 Bft)
08.07.2012 01:40 12,2 C 85 % 0,0 l/m 0,6 km/h (0 Bft) W-SW 247 9,9 C 12,7 C 4,7 km/h (1 Bft)
08.07.2012 01:45 12,2 C 85 % 0,0 l/m 0,3 km/h (0 Bft) NO 45 9,9 C 12,7 C 0,0 km/h (0 Bft)
08.07.2012 01:50 12,2 C 85 % 0,0 l/m 0,2 km/h (0 Bft) S-SW 202 10,0 C 12,6 C 2,1 km/h (1 Bft)
08.07.2012 01:55 12,2 C 85 % 0,0 l/m 0,2 km/h (0 Bft) S 180 10,0 C 12,6 C 0,0 km/h (0 Bft)
08.07.2012 02:00 12,2 C 85 % 0,0 l/m 0,0 km/h (0 Bft) S 180 9,9 C 12,5 C 0,0 km/h (0 Bft)
08.07.2012 02:05 12,2 C 85 % 0,0 l/m 0,0 km/h (0 Bft) S-SO 157 9,9 C 12,4 C 0,0 km/h (0 Bft)
08.07.2012 02:10 12,2 C 85 % 0,0 l/m 0,2 km/h (0 Bft) SW 225 9,9 C 12,4 C 1,9 km/h (1 Bft)
08.07.2012 02:15 12,2 C 85 % 0,0 l/m 0,3 km/h (0 Bft) O-SO 112 10,0 C 12,4 C 0,0 km/h (0 Bft)
08.07.2012 02:20 12,2 C 85 % 0,0 l/m 0,3 km/h (0 Bft) O-SO 112 10,0 C 12,3 C 1,6 km/h (1 Bft)
08.07.2012 02:25 12,2 C 85 % 0,0 l/m 0,2 km/h (0 Bft) SO 135 9,9 C 12,3 C 2,1 km/h (1 Bft)
08.07.2012 02:30 12,2 C 85 % 0,0 l/m 0,6 km/h (0 Bft) S 180 9,9 C 12,3 C 3,2 km/h (1 Bft)
08.07.2012 02:35 12,2 C 85 % 0,0 l/m 0,8 km/h (0 Bft) SO 135 9,9 C 12,3 C 0,0 km/h (0 Bft)
08.07.2012 02:40 12,1 C 85 % 0,0 l/m 0,3 km/h (0 Bft) SO 135 9,7 C 12,1 C 0,0 km/h (0 Bft)
08.07.2012 02:45 12,1 C 86 % 0,0 l/m 0,0 km/h (0 Bft) N 360 9,8 C 12,0 C 0,0 km/h (0 Bft)
08.07.2012 02:50 12,1 C 86 % 0,0 l/m 0,0 km/h (0 Bft) N-NW 337 9,8 C 11,8 C 0,0 km/h (0 Bft)
08.07.2012 02:55 11,9 C 86 % 0,0 l/m 0,0 km/h (0 Bft) SW 225 9,6 C 11,8 C 0,0 km/h (0 Bft)
08.07.2012 03:00 11,9 C 86 % 0,0 l/m 0,3 km/h (0 Bft) N-NW 337 9,8 C 11,8 C 2,3 km/h (1 Bft)
08.07.2012 03:05 11,9 C 87 % 0,0 l/m 0,3 km/h (0 Bft) S-SW 202 10,3 C 11,9 C 0,0 km/h (0 Bft)
08.07.2012 03:10 11,9 C 87 % 0,0 l/m 0,5 km/h (0 Bft) W-SW 247 10,3 C 12,1 C 0,0 km/h (0 Bft)
08.07.2012 03:15 11,9 C 87 % 0,0 l/m 0,3 km/h (0 Bft) S-SW 202 10,1 C 12,0 C 0,0 km/h (0 Bft)
08.07.2012 03:20 11,9 C 87 % 0,0 l/m 0,3 km/h (0 Bft) N-NW 337 10,1 C 12,3 C 1,6 km/h (1 Bft)
08.07.2012 03:25 11,9 C 87 % 0,0 l/m 0,5 km/h (0 Bft) NW 315 10,2 C 12,5 C 0,0 km/h (0 Bft)
08.07.2012 03:30 11,9 C 87 % 0,0 l/m 0,6 km/h (0 Bft) W-SW 247 10,3 C 12,8 C 1,8 km/h (1 Bft)
08.07.2012 03:35 11,9 C 88 % 0,0 l/m 1,4 km/h (1 Bft) W-NW 292 10,8 C 12,9 C 3,9 km/h (1 Bft)
08.07.2012 03:40 11,9 C 86 % 0,0 l/m 1,6 km/h (1 Bft) W 270 10,7 C 13,2 C 5,1 km/h (1 Bft)
08.07.2012 03:45 11,9 C 86 % 0,0 l/m 1,3 km/h (1 Bft) W-NW 292 10,6 C 13,2 C 1,8 km/h (1 Bft)
08.07.2012 03:50 12,7 C 86 % 0,0 l/m 0,3 km/h (0 Bft) N 360 10,4 C 13,1 C 0,0 km/h (0 Bft)
08.07.2012 03:55 12,7 C 86 % 0,0 l/m 0,3 km/h (0 Bft) N 360 10,4 C 12,9 C 1,8 km/h (1 Bft)
08.07.2012 04:00 12,6 C 86 % 0,0 l/m 0,5 km/h (0 Bft) N 360 10,3 C 12,9 C 0,0 km/h (0 Bft)
08.07.2012 04:05 12,6 C 86 % 0,0 l/m 0,3 km/h (0 Bft) S-SW 202 10,3 C 12,9 C 0,0 km/h (0 Bft)
08.07.2012 04:10 12,6 C 85 % 0,0 l/m 0,3 km/h (0 Bft) W-SW 247 10,1 C 12,8 C 3,4 km/h (1 Bft)
08.07.2012 04:15 12,8 C 85 % 0,0 l/m 1,1 km/h (1 Bft) S-SW 202 10,3 C 12,8 C 2,9 km/h (1 Bft)
08.07.2012 04:20 12,6 C 85 % 0,0 l/m 1,6 km/h (1 Bft) S 180 10,1 C 12,9 C 1,9 km/h (1 Bft)
08.07.2012 04:25 12,7 C 85 % 0,0 l/m 0,8 km/h (0 Bft) NO 45 10,2 C 12,8 C 0,0 km/h (0 Bft)
08.07.2012 04:30 12,9 C 85 % 0,0 l/m 0,2 km/h (0 Bft) W-SW 247 10,4 C 12,6 C 0,0 km/h (0 Bft)
08.07.2012 04:35 12,5 C 84 % 0,0 l/m 0,2 km/h (0 Bft) N-NW 337 9,9 C 12,5 C 0,0 km/h (0 Bft)
08.07.2012 04:40 12,3 C 85 % 0,0 l/m 0,2 km/h (0 Bft) N 360 9,9 C 12,3 C 0,0 km/h (0 Bft)
08.07.2012 04:45 12,3 C 85 % 0,0 l/m 0,3 km/h (0 Bft) N 360 9,9 C 12,2 C 1,8 km/h (1 Bft)
08.07.2012 04:50 12,6 C 85 % 0,0 l/m 0,3 km/h (0 Bft) S 180 10,1 C 12,5 C 0,0 km/h (0 Bft)
08.07.2012 04:55 12,6 C 85 % 0,0 l/m 0,5 km/h (0 Bft) O-SO 112 10,1 C 12,7 C 0,0 km/h (0 Bft)
08.07.2012 05:00 12,8 C 85 % 0,0 l/m 0,3 km/h (0 Bft) S 180 10,3 C 12,8 C 2,4 km/h (1 Bft)
08.07.2012 05:05 13,0 C 84 % 0,0 l/m 0,8 km/h (0 Bft) NO 45 10,4 C 12,9 C 2,6 km/h (1 Bft)
08.07.2012 05:10 12,7 C 84 % 0,0 l/m 1,0 km/h (0 Bft) O-SO 112 10,1 C 12,8 C 0,0 km/h (0 Bft)
08.07.2012 05:15 12,5 C 84 % 0,0 l/m 1,4 km/h (1 Bft) SO 135 9,9 C 12,8 C 0,0 km/h (0 Bft)
08.07.2012 05:20 12,5 C 85 % 0,0 l/m 0,8 km/h (0 Bft) W-NW 292 10,0 C 12,7 C 0,0 km/h (0 Bft)
08.07.2012 05:25 12,4 C 85 % 0,0 l/m 0,2 km/h (0 Bft) W-SW 247 9,9 C 12,7 C 0,0 km/h (0 Bft)
08.07.2012 05:30 12,8 C 85 % 0,0 l/m 0,3 km/h (0 Bft) SW 225 10,3 C 12,8 C 2,9 km/h (1 Bft)
08.07.2012 05:35 12,8 C 85 % 0,0 l/m 0,5 km/h (0 Bft) N 360 10,3 C 12,9 C 2,3 km/h (1 Bft)
08.07.2012 05:40 12,8 C 86 % 0,0 l/m 0,8 km/h (0 Bft) S 180 10,5 C 13,2 C 0,0 km/h (0 Bft)
08.07.2012 05:45 12,8 C 86 % 0,0 l/m 0,6 km/h (0 Bft) O-SO 112 10,5 C 13,3 C 0,0 km/h (0 Bft)
08.07.2012 05:50 12,9 C 85 % 0,0 l/m 0,2 km/h (0 Bft) S 180 10,4 C 13,5 C 0,0 km/h (0 Bft)
08.07.2012 05:55 12,9 C 85 % 0,0 l/m 0,2 km/h (0 Bft) W-SW 247 10,4 C 13,5 C 0,0 km/h (0 Bft)
08.07.2012 06:00 13,1 C 85 % 0,0 l/m 0,2 km/h (0 Bft) N 360 10,6 C 13,5 C 0,0 km/h (0 Bft)
08.07.2012 06:05 13,3 C 85 % 0,0 l/m 0,2 km/h (0 Bft) N-NO 22 10,8 C 14,1 C 0,0 km/h (0 Bft)
08.07.2012 06:10 13,3 C 85 % 0,0 l/m 0,2 km/h (0 Bft) O-NO 67 10,8 C 15,4 C 0,0 km/h (0 Bft)
08.07.2012 06:15 13,7 C 84 % 0,0 l/m 0,0 km/h (0 Bft) N-NO 22 11,0 C 16,3 C 0,0 km/h (0 Bft)
08.07.2012 06:20 14,3 C 83 % 0,0 l/m 0,0 km/h (0 Bft) N 360 11,5 C 17,5 C 0,0 km/h (0 Bft)
08.07.2012 06:25 14,4 C 82 % 0,0 l/m 0,2 km/h (0 Bft) N-NW 337 11,4 C 18,1 C 1,8 km/h (1 Bft)
08.07.2012 06:30 14,6 C 81 % 0,0 l/m 0,8 km/h (0 Bft) O-SO 112 12,1 C 18,7 C 1,8 km/h (1 Bft)
08.07.2012 06:35 15,5 C 79 % 0,0 l/m 1,4 km/h (1 Bft) O-SO 112 12,6 C 19,1 C 2,6 km/h (1 Bft)
08.07.2012 06:40 16,8 C 76 % 0,0 l/m 1,8 km/h (1 Bft) O-SO 112 13,6 C 20,0 C 2,1 km/h (1 Bft)
08.07.2012 06:45 17,6 C 72 % 0,0 l/m 1,3 km/h (1 Bft) O-SO 112 13,4 C 20,5 C 1,8 km/h (1 Bft)
08.07.2012 06:50 18,5 C 69 % 0,0 l/m 0,6 km/h (0 Bft) N-NO 22 13,2 C 21,1 C 0,0 km/h (0 Bft)
08.07.2012 06:55 19,1 C 67 % 0,0 l/m 1,1 km/h (1 Bft) NO 45 13,1 C 21,4 C 2,9 km/h (1 Bft)
08.07.2012 07:00 20,0 C 65 % 0,0 l/m 1,0 km/h (0 Bft) N 360 13,6 C 22,0 C 0,0 km/h (0 Bft)
08.07.2012 07:05 20,7 C 66 % 0,0 l/m 0,6 km/h (0 Bft) W-SW 247 14,5 C 22,5 C 1,8 km/h (1 Bft)
08.07.2012 07:10 21,6 C 65 % 0,0 l/m 0,6 km/h (0 Bft) N 360 15,7 C 23,1 C 0,0 km/h (0 Bft)
08.07.2012 07:15 21,7 C 59 % 0,0 l/m 0,5 km/h (0 Bft) N-NW 337 13,6 C 23,7 C 2,7 km/h (1 Bft)
08.07.2012 07:20 21,9 C 61 % 0,0 l/m 0,8 km/h (0 Bft) N-NO 22 14,0 C 23,7 C 0,0 km/h (0 Bft)
08.07.2012 07:25 20,3 C 62 % 0,0 l/m 1,1 km/h (1 Bft) N-NO 22 12,8 C 23,5 C 1,8 km/h (1 Bft)
08.07.2012 07:30 21,7 C 59 % 0,0 l/m 2,1 km/h (1 Bft) N 360 13,3 C 23,0 C 3,2 km/h (1 Bft)
08.07.2012 07:35 22,6 C 57 % 0,0 l/m 2,7 km/h (1 Bft) N-NW 337 13,6 C 23,5 C 2,4 km/h (1 Bft)
08.07.2012 07:40 23,5 C 54 % 0,0 l/m 2,9 km/h (1 Bft) N-NW 337 13,6 C 24,3 C 3,5 km/h (1 Bft)
08.07.2012 07:45 23,8 C 52 % 0,0 l/m 2,7 km/h (1 Bft) W-NW 292 13,3 C 24,9 C 4,5 km/h (1 Bft)
08.07.2012 07:50 24,5 C 52 % 0,0 l/m 3,4 km/h (1 Bft) N 360 14,0 C 25,3 C 6,8 km/h (2 Bft)
08.07.2012 07:55 24,9 C 50 % 0,0 l/m 3,2 km/h (1 Bft) N 360 13,7 C 25,8 C 3,9 km/h (1 Bft)
08.07.2012 08:00 25,6 C 51 % 0,0 l/m 2,9 km/h (1 Bft) NO 45 14,7 C 26,3 C 0,0 km/h (0 Bft)
08.07.2012 08:05 25,9 C 48 % 0,0 l/m 2,3 km/h (1 Bft) N-NO 22 14,0 C 27,2 C 3,9 km/h (1 Bft)
08.07.2012 08:10 26,7 C 46 % 0,0 l/m 0,6 km/h (0 Bft) N 360 14,2 C 28,2 C 0,0 km/h (0 Bft)
08.07.2012 08:15 27,0 C 45 % 0,0 l/m 1,0 km/h (0 Bft) N 360 14,0 C 28,7 C 3,4 km/h (1 Bft)
08.07.2012 08:20 26,4 C 45 % 0,0 l/m 2,6 km/h (1 Bft) N-NW 337 13,5 C 28,3 C 4,5 km/h (1 Bft)
08.07.2012 08:25 27,0 C 45 % 0,0 l/m 3,2 km/h (1 Bft) N-NW 337 14,0 C 28,4 C 2,4 km/h (1 Bft)
08.07.2012 08:30 27,0 C 45 % 0,0 l/m 1,8 km/h (1 Bft) NO 45 14,7 C 29,4 C 0,0 km/h (0 Bft)
08.07.2012 08:35 26,5 C 44 % 0,0 l/m 1,6 km/h (1 Bft) O-SO 112 14,9 C 30,0 C 3,4 km/h (1 Bft)
08.07.2012 08:40 26,3 C 47 % 0,0 l/m 1,9 km/h (1 Bft) SO 135 16,6 C 30,3 C 2,6 km/h (1 Bft)
08.07.2012 08:45 25,9 C 45 % 0,0 l/m 2,3 km/h (1 Bft) O-SO 112 15,4 C 30,3 C 5,0 km/h (1 Bft)
08.07.2012 08:50 24,0 C 52 % 0,0 l/m 2,1 km/h (1 Bft) SO 135 13,5 C 27,8 C 0,0 km/h (0 Bft)
08.07.2012 08:55 23,9 C 53 % 0,0 l/m 1,1 km/h (1 Bft) N-NO 22 14,3 C 26,9 C 0,0 km/h (0 Bft)
08.07.2012 09:00 23,9 C 54 % 0,0 l/m 0,0 km/h (0 Bft) O 90 15,2 C 27,1 C 0,0 km/h (0 Bft)
08.07.2012 09:05 23,6 C 54 % 0,0 l/m 0,3 km/h (0 Bft) N 360 14,9 C 27,6 C 0,0 km/h (0 Bft)
08.07.2012 09:10 23,1 C 58 % 0,0 l/m 0,5 km/h (0 Bft) S 180 14,7 C 26,3 C 0,0 km/h (0 Bft)
08.07.2012 09:15 23,7 C 52 % 0,0 l/m 0,5 km/h (0 Bft) N 360 15,6 C 27,3 C 1,8 km/h (1 Bft)
08.07.2012 09:20 25,0 C 49 % 0,0 l/m 0,3 km/h (0 Bft) SO 135 16,5 C 30,4 C 0,0 km/h (0 Bft)
08.07.2012 09:25 25,8 C 49 % 0,0 l/m 0,2 km/h (0 Bft) S-SW 202 16,7 C 31,6 C 0,0 km/h (0 Bft)
08.07.2012 09:30 26,7 C 46 % 0,0 l/m 0,0 km/h (0 Bft) S 180 17,5 C 33,1 C 0,0 km/h (0 Bft)
08.07.2012 09:35 27,2 C 44 % 0,0 l/m 0,8 km/h (0 Bft) S-SO 157 17,7 C 34,1 C 2,6 km/h (1 Bft)
08.07.2012 09:40 26,6 C 47 % 0,0 l/m 2,3 km/h (1 Bft) S-SO 157 15,6 C 33,2 C 3,5 km/h (1 Bft)
08.07.2012 09:45 25,9 C 50 % 0,0 l/m 2,9 km/h (1 Bft) S-SO 157 14,9 C 30,9 C 3,1 km/h (1 Bft)
08.07.2012 09:50 25,5 C 52 % 0,0 l/m 3,1 km/h (1 Bft) O 90 15,5 C 28,4 C 2,7 km/h (1 Bft)
08.07.2012 09:55 24,7 C 57 % 0,0 l/m 2,9 km/h (1 Bft) S 180 15,6 C 27,6 C 3,1 km/h (1 Bft)
08.07.2012 10:00 24,7 C 57 % 0,0 l/m 2,4 km/h (1 Bft) O-SO 112 16,4 C 26,8 C 4,7 km/h (1 Bft)
08.07.2012 10:05 25,2 C 53 % 0,0 l/m 2,4 km/h (1 Bft) O 90 17,0 C 27,4 C 3,5 km/h (1 Bft)
08.07.2012 10:10 26,1 C 47 % 0,0 l/m 5,3 km/h (1 Bft) O 90 16,1 C 29,4 C 21,4 km/h (4 Bft)
08.07.2012 10:15 24,5 C 50 % 0,0 l/m 9,5 km/h (2 Bft) SO 135 13,4 C 27,1 C 18,7 km/h (3 Bft)
08.07.2012 10:20 21,8 C 57 % 0,0 l/m 15,8 km/h (3 Bft) S-SW 202 12,9 C 21,8 C 32,7 km/h (5 Bft)
08.07.2012 10:25 24,0 C 54 % 0,0 l/m 15,4 km/h (3 Bft) SO 135 14,1 C 20,9 C 19,6 km/h (3 Bft)
08.07.2012 10:30 22,6 C 57 % 0,0 l/m 16,9 km/h (3 Bft) O-SO 112 13,6 C 20,9 C 44,1 km/h (6 Bft)
08.07.2012 10:35 24,2 C 55 % 0,0 l/m 18,5 km/h (3 Bft) O 90 14,6 C 20,7 C 29,1 km/h (5 Bft)
08.07.2012 10:40 24,8 C 53 % 0,0 l/m 18,0 km/h (3 Bft) SO 135 14,6 C 22,0 C 21,9 km/h (4 Bft)
08.07.2012 10:45 24,0 C 54 % 0,0 l/m 16,7 km/h (3 Bft) SO 135 14,1 C 22,7 C 16,3 km/h (3 Bft)
08.07.2012 10:50 21,8 C 61 % 0,0 l/m 16,9 km/h (3 Bft) S-SO 157 13,9 C 20,7 C 23,7 km/h (4 Bft)
08.07.2012 10:55 23,0 C 57 % 0,0 l/m 17,4 km/h (3 Bft) O-SO 112 14,0 C 20,3 C 16,7 km/h (3 Bft)
08.07.2012 11:00 24,5 C 53 % 0,0 l/m 15,6 km/h (3 Bft) O-SO 112 14,4 C 22,1 C 20,1 km/h (4 Bft)
08.07.2012 11:05 23,5 C 58 % 0,0 l/m 13,5 km/h (3 Bft) SO 135 14,7 C 22,4 C 17,7 km/h (3 Bft)
08.07.2012 11:10 21,9 C 59 % 0,0 l/m 13,4 km/h (3 Bft) SO 135 13,5 C 21,0 C 17,4 km/h (3 Bft)
08.07.2012 11:15 21,2 C 62 % 0,0 l/m 13,0 km/h (3 Bft) S 180 13,6 C 20,3 C 10,1 km/h (2 Bft)
08.07.2012 11:20 21,2 C 62 % 0,0 l/m 11,6 km/h (2 Bft) O-SO 112 13,6 C 19,9 C 13,4 km/h (3 Bft)
08.07.2012 11:25 20,8 C 64 % 0,0 l/m 10,9 km/h (2 Bft) S 180 13,7 C 19,8 C 18,5 km/h (3 Bft)
08.07.2012 11:30 20,8 C 64 % 0,0 l/m 10,5 km/h (2 Bft) SO 135 13,7 C 19,5 C 18,3 km/h (3 Bft)
08.07.2012 11:35 20,7 C 65 % 0,0 l/m 9,2 km/h (2 Bft) O-SO 112 13,9 C 19,9 C 7,7 km/h (2 Bft)
08.07.2012 11:40 22,9 C 58 % 0,0 l/m 9,2 km/h (2 Bft) SO 135 14,2 C 21,2 C 10,9 km/h (2 Bft)
08.07.2012 11:45 24,0 C 55 % 0,0 l/m 10,8 km/h (2 Bft) N-NW 337 14,4 C 22,2 C 18,0 km/h (3 Bft)
08.07.2012 11:50 23,3 C 56 % 0,0 l/m 10,5 km/h (2 Bft) O 90 14,0 C 22,8 C 15,0 km/h (3 Bft)
08.07.2012 11:55 21,9 C 59 % 0,0 l/m 10,6 km/h (2 Bft) O 90 13,5 C 22,0 C 9,2 km/h (2 Bft)
08.07.2012 12:00 21,2 C 62 % 0,0 l/m 10,0 km/h (2 Bft) SO 135 13,6 C 21,2 C 12,4 km/h (3 Bft)
08.07.2012 12:05 21,9 C 61 % 0,0 l/m 8,5 km/h (2 Bft) O-SO 112 14,0 C 21,6 C 11,4 km/h (2 Bft)
08.07.2012 12:10 23,4 C 57 % 0,0 l/m 7,4 km/h (2 Bft) O-SO 112 14,4 C 22,4 C 5,1 km/h (1 Bft)
08.07.2012 12:15 22,3 C 59 % 0,0 l/m 6,4 km/h (2 Bft) S 180 13,9 C 23,3 C 6,1 km/h (2 Bft)
08.07.2012 12:20 22,0 C 59 % 0,0 l/m 6,0 km/h (2 Bft) S-SO 157 13,6 C 23,2 C 5,1 km/h (1 Bft)
08.07.2012 12:25 21,5 C 60 % 0,0 l/m 6,9 km/h (2 Bft) SO 135 13,4 C 22,6 C 10,0 km/h (2 Bft)
08.07.2012 12:30 24,0 C 56 % 0,0 l/m 6,8 km/h (2 Bft) S 180 14,7 C 23,0 C 5,8 km/h (2 Bft)
08.07.2012 12:35 24,3 C 56 % 0,0 l/m 6,0 km/h (2 Bft) O 90 14,9 C 24,1 C 9,0 km/h (2 Bft)
08.07.2012 12:40 23,9 C 54 % 0,0 l/m 5,8 km/h (2 Bft) S 180 14,0 C 24,9 C 7,4 km/h (2 Bft)
08.07.2012 12:45 22,3 C 58 % 0,0 l/m 6,1 km/h (2 Bft) S-SO 157 13,6 C 23,9 C 5,1 km/h (1 Bft)
08.07.2012 12:50 23,5 C 55 % 0,0 l/m 5,5 km/h (1 Bft) O-SO 112 13,9 C 23,3 C 4,8 km/h (1 Bft)
08.07.2012 12:55 24,5 C 53 % 0,0 l/m 6,1 km/h (2 Bft) SO 135 14,3 C 24,4 C 8,7 km/h (2 Bft)
08.07.2012 13:00 24,5 C 50 % 0,0 l/m 6,4 km/h (2 Bft) S-SW 202 13,4 C 25,2 C 4,2 km/h (1 Bft)
08.07.2012 13:05 24,6 C 51 % 0,0 l/m 6,3 km/h (2 Bft) SO 135 13,8 C 25,4 C 9,8 km/h (2 Bft)
08.07.2012 13:10 24,7 C 50 % 0,0 l/m 5,6 km/h (1 Bft) SO 135 13,6 C 25,6 C 10,3 km/h (2 Bft)
08.07.2012 13:15 24,3 C 50 % 0,0 l/m 5,6 km/h (1 Bft) NO 45 13,2 C 25,6 C 6,9 km/h (2 Bft)
08.07.2012 13:20 24,2 C 52 % 0,0 l/m 4,7 km/h (1 Bft) S-SO 157 13,7 C 25,8 C 8,4 km/h (2 Bft)
08.07.2012 13:25 24,2 C 52 % 0,0 l/m 5,0 km/h (1 Bft) S-SO 157 13,7 C 26,0 C 6,9 km/h (2 Bft)
08.07.2012 13:30 23,7 C 53 % 0,0 l/m 5,5 km/h (1 Bft) W-SW 247 13,5 C 25,0 C 6,3 km/h (2 Bft)
08.07.2012 13:35 24,1 C 53 % 0,0 l/m 4,8 km/h (1 Bft) S 180 13,9 C 25,2 C 9,7 km/h (2 Bft)
08.07.2012 13:40 24,8 C 50 % 0,0 l/m 4,7 km/h (1 Bft) SO 135 13,7 C 25,6 C 7,7 km/h (2 Bft)
08.07.2012 13:45 24,8 C 49 % 0,0 l/m 5,0 km/h (1 Bft) S 180 13,3 C 25,5 C 4,0 km/h (1 Bft)
08.07.2012 13:50 24,6 C 49 % 0,0 l/m 2,7 km/h (1 Bft) O 90 13,2 C 26,4 C 1,9 km/h (1 Bft)
08.07.2012 13:55 24,8 C 50 % 0,0 l/m 1,8 km/h (1 Bft) S 180 13,7 C 27,4 C 4,5 km/h (1 Bft)
08.07.2012 14:00 25,7 C 50 % 0,0 l/m 3,4 km/h (1 Bft) S-SO 157 14,5 C 27,6 C 6,0 km/h (2 Bft)
08.07.2012 14:05 25,0 C 49 % 0,0 l/m 4,3 km/h (1 Bft) S 180 13,5 C 27,5 C 4,7 km/h (1 Bft)
08.07.2012 14:10 24,7 C 49 % 0,0 l/m 4,5 km/h (1 Bft) W-SW 247 13,3 C 26,4 C 3,7 km/h (1 Bft)
08.07.2012 14:15 25,1 C 51 % 0,0 l/m 4,5 km/h (1 Bft) S 180 14,2 C 26,6 C 5,8 km/h (2 Bft)
08.07.2012 14:20 25,8 C 48 % 0,0 l/m 3,1 km/h (1 Bft) S 180 13,9 C 27,6 C 2,3 km/h (1 Bft)
08.07.2012 14:25 25,5 C 49 % 0,0 l/m 2,9 km/h (1 Bft) SW 225 14,0 C 28,1 C 5,3 km/h (1 Bft)
08.07.2012 14:30 26,0 C 48 % 0,0 l/m 4,3 km/h (1 Bft) S 180 14,1 C 28,0 C 7,1 km/h (2 Bft)
08.07.2012 14:35 25,4 C 49 % 0,0 l/m 4,5 km/h (1 Bft) W 270 13,9 C 27,8 C 3,9 km/h (1 Bft)
08.07.2012 14:40 25,5 C 49 % 0,0 l/m 2,9 km/h (1 Bft) S 180 14,0 C 28,3 C 4,8 km/h (1 Bft)
08.07.2012 14:45 25,5 C 46 % 0,0 l/m 2,3 km/h (1 Bft) N 360 13,0 C 28,4 C 2,3 km/h (1 Bft)
08.07.2012 14:50 25,5 C 48 % 0,0 l/m 2,6 km/h (1 Bft) O-SO 112 13,7 C 29,1 C 4,3 km/h (1 Bft)
08.07.2012 14:55 24,1 C 52 % 0,0 l/m 2,9 km/h (1 Bft) S-SO 157 13,6 C 28,2 C 5,8 km/h (2 Bft)
08.07.2012 15:00 23,8 C 54 % 0,0 l/m 2,1 km/h (1 Bft) SO 135 13,9 C 26,7 C 0,0 km/h (0 Bft)
08.07.2012 15:05 24,2 C 56 % 0,0 l/m 0,8 km/h (0 Bft) NW 315 14,9 C 27,4 C 0,0 km/h (0 Bft)
08.07.2012 15:10 25,4 C 51 % 0,0 l/m 1,3 km/h (1 Bft) NO 45 14,5 C 28,4 C 0,0 km/h (0 Bft)
08.07.2012 15:15 25,5 C 51 % 0,0 l/m 1,8 km/h (1 Bft) S-SO 157 14,6 C 28,3 C 4,0 km/h (1 Bft)
08.07.2012 15:20 25,1 C 51 % 0,0 l/m 2,6 km/h (1 Bft) S-SW 202 14,2 C 28,0 C 5,0 km/h (1 Bft)
08.07.2012 15:25 25,0 C 50 % 0,0 l/m 3,4 km/h (1 Bft) W-NW 292 13,8 C 27,8 C 2,4 km/h (1 Bft)
08.07.2012 15:30 25,7 C 49 % 0,0 l/m 2,9 km/h (1 Bft) NW 315 14,2 C 28,2 C 3,4 km/h (1 Bft)
08.07.2012 15:35 25,6 C 48 % 0,0 l/m 2,4 km/h (1 Bft) SW 225 13,8 C 28,9 C 0,0 km/h (0 Bft)
08.07.2012 15:40 25,7 C 49 % 0,0 l/m 2,4 km/h (1 Bft) N 360 14,2 C 29,1 C 5,3 km/h (1 Bft)
08.07.2012 15:45 26,4 C 48 % 0,0 l/m 2,3 km/h (1 Bft) W-SW 247 14,5 C 29,5 C 5,5 km/h (1 Bft)
08.07.2012 15:50 26,5 C 47 % 0,0 l/m 2,4 km/h (1 Bft) N 360 14,3 C 29,6 C 1,6 km/h (1 Bft)
08.07.2012 15:55 25,6 C 48 % 0,0 l/m 3,4 km/h (1 Bft) W-SW 247 13,8 C 29,8 C 5,0 km/h (1 Bft)
08.07.2012 16:00 25,8 C 48 % 0,0 l/m 2,7 km/h (1 Bft) N-NW 337 13,9 C 29,5 C 2,7 km/h (1 Bft)
08.07.2012 16:05 24,9 C 51 % 0,0 l/m 2,3 km/h (1 Bft) O-SO 112 14,1 C 29,4 C 0,0 km/h (0 Bft)
08.07.2012 16:10 24,5 C 53 % 0,0 l/m 2,4 km/h (1 Bft) S 180 14,3 C 28,1 C 4,5 km/h (1 Bft)
08.07.2012 16:15 24,9 C 53 % 0,0 l/m 2,9 km/h (1 Bft) S-SO 157 14,6 C 27,5 C 0,0 km/h (0 Bft)
08.07.2012 16:20 26,9 C 50 % 0,0 l/m 3,4 km/h (1 Bft) W 270 15,6 C 28,3 C 5,8 km/h (2 Bft)
08.07.2012 16:25 26,8 C 49 % 0,0 l/m 3,4 km/h (1 Bft) S 180 15,2 C 29,1 C 1,8 km/h (1 Bft)
08.07.2012 16:30 26,0 C 50 % 0,0 l/m 4,0 km/h (1 Bft) S-SW 202 14,8 C 29,6 C 6,3 km/h (2 Bft)
08.07.2012 16:35 25,1 C 53 % 0,0 l/m 3,9 km/h (1 Bft) S-SW 202 14,8 C 28,5 C 2,7 km/h (1 Bft)
08.07.2012 16:40 25,4 C 53 % 0,0 l/m 3,9 km/h (1 Bft) S 180 15,1 C 27,8 C 5,3 km/h (1 Bft)
08.07.2012 16:45 26,0 C 50 % 0,0 l/m 3,7 km/h (1 Bft) S 180 14,8 C 28,3 C 9,8 km/h (2 Bft)
08.07.2012 16:50 24,9 C 52 % 0,0 l/m 4,3 km/h (1 Bft) S 180 14,4 C 28,1 C 4,8 km/h (1 Bft)
08.07.2012 16:55 24,3 C 55 % 0,0 l/m 4,5 km/h (1 Bft) SO 135 14,7 C 27,3 C 7,7 km/h (2 Bft)
08.07.2012 17:00 24,0 C 56 % 0,0 l/m 4,0 km/h (1 Bft) S-SO 157 14,7 C 26,2 C 4,5 km/h (1 Bft)
08.07.2012 17:05 24,1 C 57 % 0,0 l/m 4,0 km/h (1 Bft) SO 135 15,0 C 25,7 C 6,1 km/h (2 Bft)
08.07.2012 17:10 24,3 C 55 % 0,0 l/m 3,5 km/h (1 Bft) S-SW 202 14,7 C 25,7 C 6,9 km/h (2 Bft)
08.07.2012 17:15 23,8 C 57 % 0,0 l/m 3,7 km/h (1 Bft) W-SW 247 14,8 C 25,4 C 3,4 km/h (1 Bft)
08.07.2012 17:20 23,1 C 57 % 0,0 l/m 3,7 km/h (1 Bft) SW 225 14,1 C 24,7 C 2,1 km/h (1 Bft)
08.07.2012 17:25 22,8 C 59 % 0,0 l/m 3,5 km/h (1 Bft) W-SW 247 14,4 C 24,3 C 4,0 km/h (1 Bft)
08.07.2012 17:30 22,6 C 59 % 0,0 l/m 3,9 km/h (1 Bft) S-SW 202 14,2 C 23,7 C 2,4 km/h (1 Bft)
08.07.2012 17:35 22,3 C 61 % 0,0 l/m 3,5 km/h (1 Bft) SW 225 14,4 C 23,2 C 4,3 km/h (1 Bft)
08.07.2012 17:40 21,5 C 65 % 0,0 l/m 2,3 km/h (1 Bft) NO 45 14,6 C 22,5 C 0,0 km/h (0 Bft)
08.07.2012 17:45 21,1 C 67 % 0,0 l/m 1,8 km/h (1 Bft) O-NO 67 14,7 C 22,2 C 0,0 km/h (0 Bft)
08.07.2012 17:50 21,0 C 69 % 0,0 l/m 0,6 km/h (0 Bft) S-SO 157 15,1 C 21,9 C 0,0 km/h (0 Bft)
08.07.2012 17:55 20,8 C 70 % 0,0 l/m 0,3 km/h (0 Bft) N-NW 337 15,1 C 21,8 C 1,8 km/h (1 Bft)
08.07.2012 18:00 20,6 C 71 % 0,0 l/m 1,4 km/h (1 Bft) S-SO 157 15,2 C 21,5 C 0,0 km/h (0 Bft)
08.07.2012 18:05 20,8 C 70 % 0,0 l/m 2,3 km/h (1 Bft) N-NW 337 15,1 C 21,5 C 2,9 km/h (1 Bft)
08.07.2012 18:10 20,6 C 71 % 0,0 l/m 2,6 km/h (1 Bft) SO 135 15,2 C 21,2 C 3,9 km/h (1 Bft)
08.07.2012 18:15 19,9 C 75 % 0,0 l/m 3,5 km/h (1 Bft) O-SO 112 15,3 C 20,3 C 8,4 km/h (2 Bft)
08.07.2012 18:20 17,8 C 85 % 2,7 l/m 4,3 km/h (1 Bft) O-SO 112 15,2 C 18,6 C 13,0 km/h (3 Bft)
08.07.2012 18:25 17,7 C 86 % 1,4 l/m 4,3 km/h (1 Bft) N 360 15,3 C 17,9 C 2,4 km/h (1 Bft)
08.07.2012 18:30 17,7 C 87 % 1,4 l/m 3,2 km/h (1 Bft) S 180 15,5 C 17,7 C 1,8 km/h (1 Bft)
08.07.2012 18:35 18,0 C 87 % 0,0 l/m 1,9 km/h (1 Bft) N 360 15,8 C 17,9 C 2,7 km/h (1 Bft)
08.07.2012 18:40 17,8 C 88 % 0,0 l/m 1,6 km/h (1 Bft) N 360 15,8 C 18,1 C 2,4 km/h (1 Bft)
08.07.2012 18:45 17,3 C 88 % 0,0 l/m 1,9 km/h (1 Bft) N 360 15,3 C 18,1 C 1,9 km/h (1 Bft)
08.07.2012 18:50 17,2 C 89 % 0,0 l/m 1,6 km/h (1 Bft) NO 45 15,4 C 17,9 C 2,4 km/h (1 Bft)
08.07.2012 18:55 17,2 C 89 % 0,0 l/m 0,8 km/h (0 Bft) NO 45 15,4 C 17,9 C 3,2 km/h (1 Bft)
08.07.2012 19:00 17,4 C 89 % 0,0 l/m 0,6 km/h (0 Bft) N 360 15,6 C 18,1 C 1,9 km/h (1 Bft)
08.07.2012 19:05 17,4 C 89 % 0,0 l/m 0,5 km/h (0 Bft) S-SW 202 15,6 C 18,4 C 0,0 km/h (0 Bft)
08.07.2012 19:10 17,4 C 89 % 0,0 l/m 0,2 km/h (0 Bft) NW 315 15,6 C 18,5 C 0,0 km/h (0 Bft)
08.07.2012 19:15 17,3 C 90 % 0,0 l/m 0,3 km/h (0 Bft) N 360 15,6 C 18,4 C 2,3 km/h (1 Bft)
08.07.2012 19:20 17,0 C 90 % 0,0 l/m 1,3 km/h (1 Bft) N-NW 337 15,3 C 18,1 C 3,7 km/h (1 Bft)
08.07.2012 19:25 17,1 C 90 % 0,0 l/m 1,3 km/h (1 Bft) N 360 15,4 C 17,9 C 0,0 km/h (0 Bft)
08.07.2012 19:30 16,9 C 90 % 0,0 l/m 0,8 km/h (0 Bft) W-NW 292 15,2 C 17,7 C 0,0 km/h (0 Bft)
08.07.2012 19:35 17,0 C 90 % 0,0 l/m 0,5 km/h (0 Bft) SW 225 15,3 C 17,6 C 2,4 km/h (1 Bft)
08.07.2012 19:40 16,9 C 90 % 0,0 l/m 0,5 km/h (0 Bft) NO 45 15,2 C 17,6 C 1,8 km/h (1 Bft)
08.07.2012 19:45 16,9 C 91 % 0,0 l/m 1,0 km/h (0 Bft) N 360 15,4 C 17,5 C 3,5 km/h (1 Bft)
08.07.2012 19:50 17,2 C 91 % 0,0 l/m 1,3 km/h (1 Bft) N 360 15,7 C 17,6 C 0,0 km/h (0 Bft)
08.07.2012 19:55 17,1 C 91 % 0,0 l/m 1,1 km/h (1 Bft) N 360 15,6 C 17,7 C 0,0 km/h (0 Bft)
08.07.2012 20:00 17,0 C 91 % 0,0 l/m 0,3 km/h (0 Bft) N 360 15,5 C 17,6 C 2,6 km/h (1 Bft)
08.07.2012 20:05 16,9 C 91 % 0,0 l/m 0,2 km/h (0 Bft) NO 45 15,4 C 17,4 C 0,0 km/h (0 Bft)
08.07.2012 20:10 16,9 C 91 % 0,0 l/m 0,2 km/h (0 Bft) S 180 15,4 C 17,3 C 0,0 km/h (0 Bft)
08.07.2012 20:15 16,8 C 91 % 0,0 l/m 0,2 km/h (0 Bft) N 360 15,3 C 17,3 C 2,4 km/h (1 Bft)
08.07.2012 20:20 16,8 C 91 % 0,0 l/m 0,8 km/h (0 Bft) W 270 15,3 C 17,1 C 0,0 km/h (0 Bft)
08.07.2012 20:25 16,7 C 91 % 0,0 l/m 1,3 km/h (1 Bft) O-SO 112 15,2 C 17,1 C 3,1 km/h (1 Bft)
08.07.2012 20:30 16,8 C 91 % 0,0 l/m 1,0 km/h (0 Bft) N-NO 22 15,3 C 17,1 C 0,0 km/h (0 Bft)
08.07.2012 20:35 16,7 C 91 % 0,0 l/m 0,8 km/h (0 Bft) N-NO 22 15,2 C 17,1 C 0,0 km/h (0 Bft)
08.07.2012 20:40 16,6 C 92 % 0,0 l/m 1,1 km/h (1 Bft) N-NO 22 15,3 C 17,0 C 2,3 km/h (1 Bft)
08.07.2012 20:45 16,6 C 92 % 0,0 l/m 1,3 km/h (1 Bft) N 360 15,3 C 16,9 C 3,1 km/h (1 Bft)
08.07.2012 20:50 16,6 C 92 % 0,0 l/m 1,4 km/h (1 Bft) NO 45 15,3 C 16,9 C 1,8 km/h (1 Bft)
08.07.2012 20:55 16,6 C 92 % 0,0 l/m 1,1 km/h (1 Bft) NO 45 15,3 C 16,9 C 0,0 km/h (0 Bft)
08.07.2012 21:00 16,5 C 92 % 0,0 l/m 0,6 km/h (0 Bft) W-NW 292 15,2 C 16,8 C 0,0 km/h (0 Bft)
08.07.2012 21:05 16,5 C 92 % 0,0 l/m 0,6 km/h (0 Bft) N-NO 22 15,2 C 16,7 C 0,0 km/h (0 Bft)
08.07.2012 21:10 16,5 C 92 % 0,0 l/m 0,5 km/h (0 Bft) N 360 15,2 C 16,7 C 4,2 km/h (1 Bft)
08.07.2012 21:15 16,4 C 92 % 0,0 l/m 1,1 km/h (1 Bft) N 360 15,1 C 16,7 C 0,0 km/h (0 Bft)
08.07.2012 21:20 16,5 C 92 % 0,0 l/m 1,4 km/h (1 Bft) N-NO 22 15,2 C 16,6 C 2,7 km/h (1 Bft)
08.07.2012 21:25 16,4 C 92 % 0,0 l/m 1,8 km/h (1 Bft) N-NO 22 15,1 C 16,6 C 4,3 km/h (1 Bft)
08.07.2012 21:30 16,5 C 92 % 0,0 l/m 1,8 km/h (1 Bft) O 90 15,2 C 16,5 C 2,3 km/h (1 Bft)
08.07.2012 21:35 16,5 C 92 % 0,0 l/m 1,3 km/h (1 Bft) N 360 15,2 C 16,6 C 3,7 km/h (1 Bft)
08.07.2012 21:40 16,5 C 92 % 0,0 l/m 2,4 km/h (1 Bft) NO 45 15,2 C 16,6 C 1,8 km/h (1 Bft)
08.07.2012 21:45 16,5 C 92 % 0,0 l/m 2,7 km/h (1 Bft) O 90 15,2 C 16,5 C 0,0 km/h (0 Bft)
08.07.2012 21:50 16,4 C 92 % 0,7 l/m 1,4 km/h (1 Bft) N 360 15,1 C 16,4 C 2,3 km/h (1 Bft)
08.07.2012 21:55 16,3 C 92 % 0,0 l/m 1,0 km/h (0 Bft) N 360 15,0 C 16,3 C 1,9 km/h (1 Bft)
08.07.2012 22:00 16,3 C 92 % 0,0 l/m 1,4 km/h (1 Bft) N 360 15,0 C 16,3 C 2,4 km/h (1 Bft)
08.07.2012 22:05 16,2 C 92 % 0,0 l/m 1,8 km/h (1 Bft) N-NO 22 14,9 C 16,2 C 2,3 km/h (1 Bft)
08.07.2012 22:10 16,1 C 92 % 0,0 l/m 1,6 km/h (1 Bft) N-NW 337 14,8 C 16,1 C 0,0 km/h (0 Bft)
08.07.2012 22:15 16,1 C 92 % 0,0 l/m 0,6 km/h (0 Bft) S 180 14,8 C 16,1 C 0,0 km/h (0 Bft)
08.07.2012 22:20 16,0 C 92 % 0,0 l/m 0,2 km/h (0 Bft) N 360 14,7 C 16,0 C 1,8 km/h (1 Bft)
08.07.2012 22:25 16,0 C 92 % 0,0 l/m 0,2 km/h (0 Bft) N-NW 337 14,7 C 15,9 C 0,0 km/h (0 Bft)
08.07.2012 22:30 16,1 C 92 % 0,0 l/m 0,2 km/h (0 Bft) NO 45 14,8 C 15,9 C 0,0 km/h (0 Bft)
08.07.2012 22:35 16,0 C 92 % 0,0 l/m 0,0 km/h (0 Bft) N-NO 22 14,7 C 15,9 C 0,0 km/h (0 Bft)
08.07.2012 22:40 16,1 C 92 % 0,0 l/m 0,2 km/h (0 Bft) N-NO 22 14,8 C 16,0 C 0,0 km/h (0 Bft)
08.07.2012 22:45 16,1 C 92 % 0,0 l/m 0,2 km/h (0 Bft) NO 45 14,8 C 16,0 C 0,0 km/h (0 Bft)
08.07.2012 22:50 16,2 C 92 % 0,0 l/m 0,0 km/h (0 Bft) NO 45 14,9 C 16,1 C 0,0 km/h (0 Bft)
08.07.2012 22:55 16,1 C 92 % 0,0 l/m 0,0 km/h (0 Bft) N 360 14,8 C 16,1 C 2,9 km/h (1 Bft)
08.07.2012 23:00 16,1 C 92 % 0,0 l/m 0,6 km/h (0 Bft) N 360 14,8 C 16,1 C 0,0 km/h (0 Bft)
08.07.2012 23:05 16,1 C 93 % 0,0 l/m 0,6 km/h (0 Bft) N-NO 22 15,0 C 16,1 C 0,0 km/h (0 Bft)
08.07.2012 23:10 16,1 C 93 % 0,0 l/m 0,2 km/h (0 Bft) N-NO 22 15,0 C 16,1 C 1,6 km/h (1 Bft)
08.07.2012 23:15 16,0 C 93 % 0,0 l/m 0,0 km/h (0 Bft) N 360 14,9 C 16,0 C 2,4 km/h (1 Bft)
08.07.2012 23:20 16,0 C 93 % 0,0 l/m 1,6 km/h (1 Bft) N-NO 22 14,9 C 16,0 C 0,0 km/h (0 Bft)
08.07.2012 23:25 16,0 C 93 % 0,0 l/m 1,6 km/h (1 Bft) N 360 14,9 C 16,0 C 0,0 km/h (0 Bft)
08.07.2012 23:30 16,0 C 93 % 0,0 l/m 0,2 km/h (0 Bft) S 180 14,9 C 16,0 C 0,0 km/h (0 Bft)
08.07.2012 23:35 16,0 C 93 % 0,0 l/m 0,0 km/h (0 Bft) N-NW 337 14,9 C 16,0 C 0,0 km/h (0 Bft)
08.07.2012 23:40 16,0 C 93 % 0,7 l/m 0,2 km/h (0 Bft) W-NW 292 14,9 C 16,0 C 2,3 km/h (1 Bft)
08.07.2012 23:45 16,0 C 93 % 0,0 l/m 0,2 km/h (0 Bft) N 360 14,9 C 16,0 C 0,0 km/h (0 Bft)
08.07.2012 23:50 16,0 C 93 % 0,0 l/m 0,2 km/h (0 Bft) N-NW 337 14,9 C 15,9 C 0,0 km/h (0 Bft)
08.07.2012 23:55 15,9 C 94 % 0,0 l/m 0,0 km/h (0 Bft) N-NO 22 14,9 C 15,9 C 0,0 km/h (0 Bft)
_ Min-Zeit 03:45 09:35 - 23:55 - - 01:15 03:00 23:55
Minimum _ 11,9 C 44 % - 0,0 km/h (0 Bft) - - 9,6 C 11,8 C 0,0 km/h (0 Bft)
_ Max-Zeit 09:35 23:55 18:20 10:35 - - 09:35 09:35 10:30
Maximum _ 27,2 C 94 % 2,7 l/m 18,5 km/h
O (3 Bft)
- - 17,7 C 34,1 C 44,1 km/h
O-SO (6 Bft)
Durchschnitt _ 19,0 C 72 % #6,9 l/m 2,6 km/h (1 Bft) SO - 13,4 C 20,0 C 3,6 km/h (1 Bft)